TimeCDT,TemperatureF,Dew PointF,Humidity,Sea Level PressureIn,VisibilityMPH,Wind Direction,Wind SpeedMPH,Gust SpeedMPH,PrecipitationIn,Events,Conditions,WindDirDegrees,DateUTC
12:54 AM,77.0,70.0,79,29.91,10.0,Variable,6.9,-,N/A,,Overcast,0,2013-04-18 05:54:00
1:12 AM,77.0,69.8,78,29.83,10.0,Variable,4.6,-,N/A,,Overcast,0,2013-04-18 06:12:00
1:32 AM,77.0,69.8,78,29.83,10.0,Variable,5.8,-,N/A,,Overcast,0,2013-04-18 06:32:00
1:54 AM,75.9,70.0,82,29.91,10.0,Variable,6.9,21.9,0.00,,Overcast,0,2013-04-18 06:54:00
2:15 AM,75.2,69.8,83,29.82,10.0,Variable,6.9,16.1,N/A,,Mostly Cloudy,0,2013-04-18 07:15:00
2:54 AM,75.0,68.0,79,29.87,10.0,Variable,5.8,-,N/A,,Mostly Cloudy,0,2013-04-18 07:54:00
3:16 AM,75.2,68.0,78,29.78,10.0,Variable,6.9,-,N/A,,Overcast,0,2013-04-18 08:16:00
3:54 AM,75.0,68.0,79,29.84,10.0,Variable,6.9,16.1,N/A,,Overcast,0,2013-04-18 08:54:00
4:54 AM,75.0,68.0,79,29.82,10.0,Variable,5.8,-,N/A,,Overcast,0,2013-04-18 09:54:00
5:15 AM,75.2,68.0,78,29.74,10.0,South,9.2,-,N/A,,Overcast,170,2013-04-18 10:15:00
5:23 AM,75.2,68.0,78,29.74,10.0,Variable,5.8,-,N/A,,Overcast,0,2013-04-18 10:23:00
5:54 AM,75.0,68.0,79,29.82,10.0,Variable,4.6,-,N/A,,Overcast,0,2013-04-18 10:54:00
6:26 AM,75.2,68.0,78,29.75,10.0,Variable,5.8,-,N/A,,Overcast,0,2013-04-18 11:26:00
6:49 AM,75.2,68.0,78,29.75,10.0,Variable,5.8,-,N/A,,Overcast,0,2013-04-18 11:49:00
6:54 AM,75.0,68.0,79,29.83,10.0,Variable,6.9,-,N/A,,Overcast,0,2013-04-18 11:54:00
7:09 AM,75.2,66.2,73,29.76,10.0,Variable,4.6,19.6,N/A,,Overcast,0,2013-04-18 12:09:00
7:19 AM,75.2,66.2,73,29.76,10.0,South,8.1,-,N/A,,Overcast,180,2013-04-18 12:19:00
7:54 AM,75.0,68.0,79,29.85,10.0,Variable,4.6,-,N/A,,Overcast,0,2013-04-18 12:54:00
8:17 AM,75.2,68.0,78,29.77,10.0,South,8.1,-,N/A,,Overcast,170,2013-04-18 13:17:00
8:34 AM,75.2,66.2,73,29.77,10.0,Variable,6.9,-,N/A,,Overcast,0,2013-04-18 13:34:00
8:54 AM,75.0,68.0,79,29.84,10.0,Variable,6.9,-,N/A,,Overcast,0,2013-04-18 13:54:00
9:42 AM,77.0,68.0,74,29.77,10.0,Variable,4.6,21.9,N/A,,Overcast,0,2013-04-18 14:42:00
9:54 AM,78.1,68.0,71,29.84,10.0,South,10.4,25.3,N/A,,Overcast,180,2013-04-18 14:54:00
10:54 AM,79.0,68.0,69,29.83,10.0,Variable,6.9,-,N/A,,Overcast,0,2013-04-18 15:54:00
11:54 AM,80.1,69.1,69,29.83,10.0,Variable,4.6,-,N/A,,Overcast,0,2013-04-18 16:54:00
12:54 PM,81.0,69.1,67,29.82,10.0,Variable,5.8,-,N/A,,Overcast,0,2013-04-18 17:54:00
1:13 PM,80.6,69.8,70,29.74,10.0,Variable,5.8,-,N/A,,Overcast,0,2013-04-18 18:13:00
1:54 PM,80.1,70.0,71,29.80,10.0,Variable,6.9,-,N/A,,Overcast,0,2013-04-18 18:54:00
2:54 PM,77.0,71.1,82,29.79,3.0,SSW,8.1,-,0.01,Rain,Light Rain,200,2013-04-18 19:54:00
3:54 PM,75.9,72.0,87,29.78,8.0,Variable,4.6,-,0.01,,Overcast,0,2013-04-18 20:54:00
4:22 PM,75.2,71.6,89,29.70,3.0,Calm,Calm,-,0.00,Rain,Light Rain,0,2013-04-18 21:22:00
4:29 PM,71.6,69.8,94,29.72,1.5,NNW,12.7,23.0,0.04,Rain,Light Rain,330,2013-04-18 21:29:00
4:32 PM,68.0,64.4,88,29.72,0.8,NNW,10.4,23.0,0.11,Rain,Heavy Rain,330,2013-04-18 21:32:00
4:41 PM,64.4,62.6,94,29.74,1.0,Variable,6.9,19.6,0.17,Rain,Heavy Rain,0,2013-04-18 21:41:00
4:54 PM,63.0,60.1,90,29.82,1.5,NNW,9.2,-,0.23,Rain,Heavy Rain,340,2013-04-18 21:54:00
5:01 PM,62.6,59.0,88,29.75,3.0,Variable,5.8,-,0.01,Rain,Rain,0,2013-04-18 22:01:00
5:54 PM,60.1,55.9,86,29.86,10.0,Variable,5.8,-,0.04,,Overcast,0,2013-04-18 22:54:00
6:28 PM,57.2,53.6,88,29.80,10.0,NNW,9.2,23.0,0.01,Rain,Light Rain,340,2013-04-18 23:28:00
6:54 PM,55.9,53.1,90,29.88,10.0,NNW,8.1,-,0.01,,Overcast,340,2013-04-18 23:54:00
7:02 PM,55.4,53.6,94,29.82,10.0,Variable,5.8,-,N/A,Thunderstorm,Thunderstorm,0,2013-04-19 00:02:00
7:11 PM,55.4,53.6,94,29.84,1.8,Variable,4.6,-,0.16,Rain-Thunderstorm,Heavy Thunderstorms and Rain,0,2013-04-19 00:11:00
7:23 PM,55.4,53.6,94,29.85,1.2,Variable,4.6,-,0.30,Rain-Thunderstorm,Heavy Thunderstorms and Rain,0,2013-04-19 00:23:00
7:29 PM,55.4,53.6,94,29.84,2.5,Variable,4.6,-,0.32,Rain-Thunderstorm,Light Thunderstorms and Rain,0,2013-04-19 00:29:00
7:31 PM,55.4,53.6,94,29.85,4.0,Variable,3.5,-,0.32,Rain,Light Rain,0,2013-04-19 00:31:00
7:39 PM,53.6,51.8,94,29.85,8.0,Variable,6.9,-,0.33,Rain,Light Rain,0,2013-04-19 00:39:00
7:54 PM,53.1,50.0,89,29.95,9.0,Variable,3.5,-,0.34,Rain,Light Rain,0,2013-04-19 00:54:00
8:24 PM,53.6,50.0,88,29.90,10.0,Variable,5.8,-,0.00,,Overcast,0,2013-04-19 01:24:00
8:33 PM,51.8,50.0,94,29.90,10.0,Variable,6.9,-,0.00,Thunderstorm,Thunderstorm,0,2013-04-19 01:33:00
8:43 PM,51.8,48.2,88,29.90,10.0,Variable,6.9,-,0.00,Rain,Light Rain,0,2013-04-19 01:43:00
8:54 PM,52.0,48.9,89,29.98,10.0,Variable,5.8,-,0.00,Rain,Light Rain,0,2013-04-19 01:54:00
9:20 PM,51.8,48.2,88,29.92,10.0,Variable,6.9,-,N/A,,Overcast,0,2013-04-19 02:20:00
9:46 PM,51.8,46.4,82,29.94,10.0,Variable,4.6,-,0.00,Rain-Thunderstorm,Light Rain,0,2013-04-19 02:46:00
9:54 PM,51.1,46.9,86,30.03,10.0,Variable,6.9,-,0.00,Thunderstorm,Thunderstorm,0,2013-04-19 02:54:00
10:12 PM,51.8,46.4,82,29.96,10.0,Variable,4.6,-,N/A,,Overcast,0,2013-04-19 03:12:00
10:54 PM,50.0,46.0,86,30.06,10.0,Variable,6.9,-,N/A,,Overcast,0,2013-04-19 03:54:00
11:54 PM,50.0,46.0,86,30.07,10.0,Variable,5.8,-,N/A,,Overcast,0,2013-04-19 04:54:00